Location: Cowley
(49.5667°N, 114.0667°W)
Time: 10:02:16
(UTC+00:00)

Envisat - Pass Details

Date: 06 December 2021
Orbit: 764 x 766 km, 98.2° (Epoch: 23 January)

Event Time Altitude Azimuth Distance (km) Brightness Sun altitude
Rises 00:33:09 0° 195° (SSW) 3,221 6.9 -8.7°
Reaches altitude 10° 00:35:44 10° 207° (SSW) 2,300 6.3 -9.1°
Maximum altitude 00:40:06 29° 266° (W) 1,389 5.2 -9.7°
Drops below altitude 10° 00:44:31 10° 326° (NW) 2,315 5.6 -10.4°
Sets 00:47:08 0° 338° (NNW) 3,247 6.3 -10.8°
